Tracking 17842 objects as of 1-September-2016
HD Live streaming from Space Station
objects crossing your sky now

KOMPSAT 3

Track KOMPSAT 3 now!
10-day predictions
KOMPSAT 3 is classified as:


NORAD ID: 38338
Int'l Code: 2012-025B
Perigee: 688.5 km
Apogee: 702.8 km
Inclination: 98.2 °
Period: 98.5 minutes
Semi major axis: 7066 km
RCS: 5.2993 m2 (large)
Launch date: May 17, 2012
Source: South Korea (SKOR)
Launch site: TANEGASHIMA SPACE CENTER (TNSTA)
Uplink (MHz):
Downlink (MHz):
Beacon (MHz):
Mode:
Call sign:
Status:

Your satellite tracking list
Your tracking list is empty





NASA's NSSDC Master Catalog

Two Line Element Set (TLE):
1 38338U 12025B   16244.80943036  .00000080  00000-0  25541-4 0  9994
2 38338  98.1648 180.8555 0010120 150.6451 209.5323 14.61436293228916
Source of the keplerian elements: AFSPC

N2YO: 585